Regional Weather Roundup
Issued by NWS Cleveland, OH

Home | Current Version | Previous Version | Graphics & Text | Print | Product List | Glossary On
Versions: 1 2 3 4 5 6 7 8 9 10 11 12 13 14 15 16 17 18 19 20 21 22 23 24 25 26 27 28 29 30 31 32 33 34 35 36 37 38 39 40 41 42 43 44 45 46 47 48 49 50
000
ASUS41 KCLE 070802
RWRCLE
OHIO REGIONAL WEATHER ROUNDUP
NATIONAL WEATHER SERVICE CLEVELAND, OH
300 AM EST SUN FEB 07 2016

NOTE: "FAIR" INDICATES FEW OR NO CLOUDS BELOW 12,000 FEET WITH NO
SIGNIFICANT WEATHER AND/OR OBSTRUCTIONS TO VISIBILITY.

OHZ001>008-015>018-024>027-034-035-043-044-070900-
   NORTHWEST OHIO

CITY           SKY/WX    TMP DP  RH WIND       PRES   REMARKS
DEFIANCE       MOCLDY    30  24  78 S7        30.10F WCI  23
FINDLAY        CLEAR     33  25  72 S12       30.10F WCI  24
TOLEDO EXPRESS PTCLDY    30  24  78 S7        30.09F WCI  23
TOLEDO EXEC    PTCLDY    26  21  81 S7        30.11F WCI  18
LIMA           CLEAR     33  25  72 S9        30.11F WCI  25
$$

OHZ009>014-019>023-028>033-038-089-070900-
   NORTHEAST OHIO

CITY           SKY/WX    TMP DP  RH WIND       PRES   REMARKS
CLE-HOPKINS    CLEAR     32  19  58 S9        30.17S WCI  24
CLE-LAKEFRONT  CLEAR     34  21  59 S9        30.14F WCI  27
CUY CO. ARPT   NOT AVBL
LORAIN-ELYRIA  CLEAR     29  20  69 S7        30.14F WCI  22
ASHTABULA      CLEAR     29  18  63 SW5       30.15S WCI  24
AKRON-CANTON   CLEAR     26  16  65 SW6       30.15S WCI  19
WOOSTER        CLEAR     27  19  72 CALM      30.15F
MANSFIELD      CLEAR     29  21  72 S8        30.13F WCI  21
YOUNGSTOWN     CLEAR     29  16  58 S6        30.15R WCI  23
$$

OHZ042-051>053-060>062-070>072-077>081-070900-
  SOUTHWEST OHIO

CITY           SKY/WX    TMP DP  RH WIND       PRES   REMARKS
CINC-COVINGTON CLEAR     34  23  64 SW8       30.17F WCI  27
CINC-LUNKEN    CLEAR     26  25  96 CALM      30.20F
HAMILTON       CLEAR     25  22  88 CALM      30.19S
DAYTON         CLEAR     34  24  67 S10       30.15F WCI  26
WRIGHT-PAT AFB CLEAR     29  22  76 SE6       30.15F WCI  23
DAYTON GENERAL CLEAR     30  21  69 S8        30.15F WCI  22
WILMINGTON     CLEAR     32  23  69 SW3       30.16F
$$

OHZ036-037-039>041-045>050-054>059-063>069-073>076-082>088-070900-
  CENTRAL AND SOUTHEAST OHIO

CITY           SKY/WX    TMP DP  RH WIND       PRES   REMARKS
COLUMBUS       CLEAR     27  20  75 CALM      30.17F
OSU AIRPORT    CLEAR     28  21  75 S3        30.16F
BOLTON FIELD   NOT AVBL
RICKENBACK AFB NOT AVBL
NEWARK         CLEAR     23  19  85 CALM      30.17F
MARION         CLEAR     29  20  69 S9        30.14F WCI  20
LANCASTER      CLEAR     24  20  84 CALM      30.17F
ZANESVILLE     CLEAR     25  18  74 CALM      30.17F
NEW PHILLY     CLEAR     23  19  85 SE5       30.19S WCI  17
$$



USA.gov is the U.S. government's official web portal to all federal, state and local government web resources and services.